TimeCDT,TemperatureF,Dew PointF,Humidity,Sea Level PressureIn,VisibilityMPH,Wind Direction,Wind SpeedMPH,Gust SpeedMPH,PrecipitationIn,Events,Conditions,WindDirDegrees,DateUTC
12:15 AM,66.2,46.4,49,29.77,10.0,SW,5.8,-,N/A,,Clear,220,2013-05-14 05:15:00
12:35 AM,68.0,46.4,46,29.77,10.0,SW,5.8,-,N/A,,Clear,220,2013-05-14 05:35:00
12:55 AM,68.0,48.2,49,29.77,10.0,SSW,6.9,-,N/A,,Clear,210,2013-05-14 05:55:00
1:15 AM,66.2,48.2,52,29.76,10.0,SSW,8.1,-,N/A,,Clear,210,2013-05-14 06:15:00
1:35 AM,66.2,48.2,52,29.75,10.0,SW,9.2,-,N/A,,Clear,220,2013-05-14 06:35:00
1:55 AM,66.2,48.2,52,29.75,10.0,SSW,5.8,-,N/A,,Clear,210,2013-05-14 06:55:00
2:15 AM,68.0,48.2,49,29.75,10.0,SSW,8.1,-,N/A,,Clear,210,2013-05-14 07:15:00
2:35 AM,68.0,48.2,49,29.75,10.0,SSW,6.9,-,N/A,,Clear,200,2013-05-14 07:35:00
2:55 AM,68.0,46.4,46,29.74,10.0,SSW,6.9,-,N/A,,Clear,200,2013-05-14 07:55:00
3:15 AM,68.0,46.4,46,29.74,10.0,South,4.6,-,N/A,,Clear,190,2013-05-14 08:15:00
3:35 AM,60.8,48.2,63,29.73,10.0,SSE,4.6,-,N/A,,Clear,150,2013-05-14 08:35:00
3:55 AM,64.4,48.2,56,29.73,10.0,South,4.6,-,N/A,,Clear,180,2013-05-14 08:55:00
4:15 AM,60.8,46.4,59,29.72,10.0,ESE,3.5,-,N/A,,Clear,120,2013-05-14 09:15:00
4:35 AM,62.6,48.2,59,29.72,10.0,SSE,4.6,-,N/A,,Clear,160,2013-05-14 09:35:00
4:55 AM,59.0,46.4,63,29.71,10.0,SSE,6.9,-,N/A,,Clear,150,2013-05-14 09:55:00
5:15 AM,60.8,48.2,63,29.71,10.0,SSE,8.1,-,N/A,,Clear,160,2013-05-14 10:15:00
5:35 AM,62.6,48.2,59,29.70,10.0,South,6.9,-,N/A,,Clear,170,2013-05-14 10:35:00
5:55 AM,60.8,48.2,63,29.70,10.0,South,5.8,-,N/A,,Clear,180,2013-05-14 10:55:00
6:15 AM,62.6,48.2,59,29.69,10.0,South,6.9,-,N/A,,Clear,180,2013-05-14 11:15:00
6:35 AM,64.4,48.2,56,29.68,10.0,SSE,6.9,-,N/A,,Clear,160,2013-05-14 11:35:00
6:55 AM,62.6,48.2,59,29.68,10.0,SSE,6.9,-,N/A,,Clear,150,2013-05-14 11:55:00
7:15 AM,60.8,50.0,68,29.68,10.0,SE,9.2,-,N/A,,Clear,140,2013-05-14 12:15:00
7:35 AM,60.8,51.8,72,29.67,10.0,SSE,8.1,-,N/A,,Clear,160,2013-05-14 12:35:00
7:55 AM,66.2,53.6,64,29.66,10.0,South,6.9,-,N/A,,Clear,170,2013-05-14 12:55:00
8:15 AM,71.6,51.8,50,29.66,10.0,South,5.8,-,N/A,,Clear,180,2013-05-14 13:15:00
8:35 AM,73.4,51.8,47,29.65,10.0,SSW,10.4,-,N/A,,Clear,210,2013-05-14 13:35:00
8:55 AM,78.8,50.0,36,29.64,10.0,SSW,15.0,-,N/A,,Clear,210,2013-05-14 13:55:00
9:15 AM,80.6,48.2,32,29.63,10.0,SW,17.3,-,N/A,,Clear,220,2013-05-14 14:15:00
9:35 AM,82.4,48.2,30,29.62,10.0,SSW,18.4,24.2,N/A,,Clear,210,2013-05-14 14:35:00
9:55 AM,84.2,50.0,30,29.61,10.0,SSW,18.4,25.3,N/A,,Clear,210,2013-05-14 14:55:00
10:15 AM,87.8,48.2,25,29.61,3.0,SSW,18.4,25.3,N/A,,Partly Cloudy,210,2013-05-14 15:15:00
10:35 AM,91.4,48.2,23,29.63,10.0,WSW,21.9,32.2,N/A,,Clear,240,2013-05-14 15:35:00
10:55 AM,91.4,48.2,23,29.62,10.0,SW,21.9,27.6,N/A,,Clear,230,2013-05-14 15:55:00
11:15 AM,93.2,48.2,21,29.61,10.0,SW,19.6,28.8,N/A,,Clear,220,2013-05-14 16:15:00
11:35 AM,93.2,48.2,21,29.61,10.0,SW,21.9,25.3,N/A,,Clear,230,2013-05-14 16:35:00
11:55 AM,93.2,48.2,21,29.61,10.0,WSW,23.0,31.1,N/A,,Clear,250,2013-05-14 16:55:00
12:15 PM,93.2,48.2,21,29.63,10.0,West,21.9,26.5,N/A,,Clear,280,2013-05-14 17:15:00
12:35 PM,93.2,46.4,20,29.64,10.0,West,21.9,29.9,N/A,,Clear,280,2013-05-14 17:35:00
12:55 PM,93.2,46.4,20,29.63,10.0,West,18.4,25.3,N/A,,Clear,260,2013-05-14 17:55:00
1:15 PM,95.0,48.2,20,29.63,10.0,WNW,23.0,28.8,N/A,,Clear,290,2013-05-14 18:15:00
1:35 PM,95.0,46.4,19,29.63,10.0,West,19.6,26.5,N/A,,Clear,280,2013-05-14 18:35:00
1:55 PM,93.2,48.2,21,29.64,10.0,West,19.6,27.6,N/A,,Clear,280,2013-05-14 18:55:00
2:15 PM,93.2,50.0,23,29.64,10.0,WNW,21.9,26.5,N/A,,Clear,290,2013-05-14 19:15:00
2:35 PM,93.2,50.0,23,29.64,10.0,WNW,16.1,29.9,N/A,,Clear,290,2013-05-14 19:35:00
2:55 PM,95.0,50.0,22,29.65,10.0,WNW,17.3,-,N/A,,Clear,300,2013-05-14 19:55:00
3:15 PM,95.0,51.8,23,29.65,10.0,NW,20.7,25.3,N/A,,Clear,320,2013-05-14 20:15:00
3:35 PM,95.0,48.2,20,29.65,10.0,WNW,19.6,25.3,N/A,,Clear,300,2013-05-14 20:35:00
3:55 PM,93.2,50.0,23,29.66,10.0,NW,18.4,26.5,N/A,,Clear,310,2013-05-14 20:55:00
4:15 PM,93.2,50.0,23,29.66,10.0,NW,17.3,20.7,N/A,,Clear,320,2013-05-14 21:15:00
4:35 PM,93.2,48.2,21,29.66,10.0,NW,21.9,26.5,N/A,,Clear,320,2013-05-14 21:35:00
4:55 PM,93.2,48.2,21,29.66,10.0,NNW,18.4,24.2,N/A,,Clear,340,2013-05-14 21:55:00
5:15 PM,91.4,46.4,21,29.67,10.0,NNW,26.5,33.4,N/A,,Clear,330,2013-05-14 22:15:00
5:35 PM,89.6,46.4,22,29.67,10.0,NNW,20.7,31.1,N/A,,Clear,330,2013-05-14 22:35:00
5:55 PM,89.6,46.4,22,29.68,10.0,NNW,26.5,31.1,N/A,,Clear,330,2013-05-14 22:55:00
6:15 PM,87.8,42.8,21,29.68,10.0,NNW,24.2,29.9,N/A,,Clear,330,2013-05-14 23:15:00
6:35 PM,87.8,42.8,21,29.69,10.0,NNW,20.7,31.1,N/A,,Clear,330,2013-05-14 23:35:00
6:55 PM,86.0,39.2,19,29.70,10.0,NNW,20.7,28.8,N/A,,Clear,330,2013-05-14 23:55:00
7:15 PM,84.2,37.4,19,29.70,10.0,NNW,16.1,-,N/A,,Clear,330,2013-05-15 00:15:00
7:35 PM,84.2,37.4,19,29.72,10.0,NNW,17.3,26.5,N/A,,Clear,330,2013-05-15 00:35:00
7:55 PM,82.4,35.6,19,29.72,10.0,NNW,16.1,-,N/A,,Clear,330,2013-05-15 00:55:00
8:15 PM,78.8,37.4,23,29.73,10.0,NNW,11.5,-,N/A,,Clear,330,2013-05-15 01:15:00
8:35 PM,73.4,39.2,29,29.74,10.0,NNW,10.4,-,N/A,,Clear,330,2013-05-15 01:35:00
8:55 PM,73.4,39.2,29,29.74,10.0,NNW,10.4,-,N/A,,Clear,330,2013-05-15 01:55:00
9:15 PM,71.6,37.4,29,29.75,10.0,NW,11.5,-,N/A,,Clear,320,2013-05-15 02:15:00
9:35 PM,73.4,35.6,25,29.76,10.0,NNW,13.8,-,N/A,,Clear,330,2013-05-15 02:35:00
9:55 PM,71.6,35.6,27,29.77,10.0,NNW,11.5,-,N/A,,Clear,330,2013-05-15 02:55:00
10:15 PM,69.8,35.6,28,29.78,10.0,NNW,12.7,-,N/A,,Clear,330,2013-05-15 03:15:00
10:35 PM,66.2,35.6,32,29.79,10.0,NNW,12.7,-,N/A,,Clear,330,2013-05-15 03:35:00
10:55 PM,66.2,35.6,32,29.79,10.0,NNW,11.5,-,N/A,,Clear,340,2013-05-15 03:55:00
11:15 PM,66.2,35.6,32,29.80,10.0,NNW,16.1,-,N/A,,Clear,330,2013-05-15 04:15:00
11:35 PM,68.0,35.6,30,29.80,10.0,NNW,17.3,-,N/A,,Clear,330,2013-05-15 04:35:00
11:55 PM,66.2,35.6,32,29.81,10.0,NNW,17.3,-,N/A,,Clear,340,2013-05-15 04:55:00